Starlink 11400

operational
NORAD ID: 63017 Int'l Des: 2025-032 Owner: SPXS Country: US Constellation: starlink
LEOCIRCULAR

Starlink 11400について

説明を読み込み中...

リアルタイム位置

3D地球を読み込み中...

次回通過

高度履歴

Altitude vs Time

uPlot chart will show altitude changes over time

軌道要素

1 63017U 25032N 25352.31900587 .00207835 00000-0 15787-2 0 9994
2 63017 43.0004 326.0519 0001113 302.3494 57.7266 15.70905525 49417
Epoch: Dec 18, 2025 • Age: 15 hours

現在のステータス

高度 363.2 km
速度 7.69 km/s
衛星直下点 -29.44°S, 116.4°E
打ち上げ日 Feb 15, 2025
運用期間 0.8 years
タイプ internet

技術仕様

分類 Payload
質量 960.00 kg
乾燥質量 910.00 kg
総質量 960.00 kg
長さ 0.30 m
直径 4.10 m
スパン 29.00 m
形状 Box + pan
製造者 SPXS
バスタイプ Starlink V2MD
フェーズステータス In Orbit
所有者/国 SPXS/US

大規模コンステレーション

Loading constellations...